Location: Córrego Montividiu
(13.2496°S, 48.8603°W)
Time: 10:49:49
(UTC+00:00)

SWIFT - Pass Details

Date: 11 March 2026
Orbit: 377 x 379 km, 20.6° (Epoch: 22 April)

Event Time Altitude Azimuth Distance (km) Brightness Sun altitude
Rises 22:56:33 0° 256° (WSW) 2,294 7.0 -21.3°
Reaches altitude 10° 22:58:55 10° 241° (WSW) 1,436 5.4 -21.9°
Enters shadow 23:01:24 23° 193° (SSW) 885 3.6 -22.4°
